Location: Nicosia
(35.1670°N, 33.3670°E)
Time: 06:02:29
(UTC+03:00)

X-37B - Visible Passes

Search period start: 07 October 2022 00:00
Search period end: 17 October 2022 00:00
Orbit: 329 x 342 km, 45.0° (Epoch: 29 September)

Date Brightness Start Highest point End Pass type
(mag) Time Alt. Az. Time Alt. Az. Time Alt. Az.
07 Oct 0.2 05:26:59 64° WSW 05:27:09 67° SSW 05:30:00 10° SE visible
08 Oct 1.9 05:47:12 20° SW 05:47:27 20° SW 05:49:39 10° S visible
13 Oct 2.1 19:02:49 10° S 19:04:45 17° SE 19:05:26 16° ESE visible
14 Oct 0.3 19:22:16 10° SW 19:25:02 57° SE 19:25:27 49° ESE visible
15 Oct 1.3 19:42:47 10° WSW 19:45:21 42° NW 19:45:21 42° NW visible
16 Oct 3.1 20:03:54 10° WNW 20:05:07 17° NW 20:05:07 17° NW visible
